Location: Wawayanda State Park
(41.1833°N, 74.4333°W)
Time: 15:25:07
(UTC-04:00)

Daily predictions for brighter satellites

Satellite Brightness Start Highest point End
(mag) Time Altitude Azimuth Time Altitude Azimuth Time Altitude Azimuth
Lacrosse 5 2.4 19:13:09 10° NW 19:18:11 64° SW 19:23:11 10° SSE
YAOGAN 1 4.0 19:14:28 10° S 19:18:35 44° W 19:22:45 10° NNW
FREGAT/IRIS 3.4 19:20:42 10° SE 19:23:28 32° ENE 19:26:13 10° N
SKYMED 2 4.2 19:20:39 10° N 19:24:57 62° WNW 19:29:14 10° SSW
H-2A R/B 3.4 19:22:59 10° SE 19:26:18 32° ENE 19:29:39 10° N
Cosmos 2150 Rocket 4.5 19:22:27 10° N 19:27:30 42° ENE 19:32:36 10° SE
Cosmos 2228 3.8 19:24:44 10° SSE 19:28:31 29° E 19:32:18 10° NNE
Cosmos 2058 Rocket 3.7 19:25:40 10° SSE 19:29:33 33° E 19:33:28 10° NNE
Cosmos 1606 Rocket 3.6 19:26:15 10° S 19:30:32 58° E 19:34:48 10° NNE
Cosmos 1953 Rocket 3.8 19:27:05 10° N 19:31:18 48° ENE 19:35:29 10° SSE
Envisat 4.5 19:29:18 10° ESE 19:32:42 18° ENE 19:36:07 10° NNE
Geosat 4.0 19:29:00 10° SSE 19:34:01 90° E 19:39:05 10° NNW
Cosmos 332 Rocket 4.0 19:29:11 10° SSW 19:34:04 82° WNW 19:38:58 10° NNE
COSMOS 2406 4.4 19:31:42 10° SE 19:35:46 21° E 19:39:52 10° NE
ATLAS CENTAUR R/B 4.1 19:19:55 10° NW 19:36:49 62° NNE 19:42:09 11° ESE
FengYun 1-2 T 4.4 19:32:21 10° SSE 19:37:49 56° ENE 19:43:16 10° N
Cosmos 389 Rocket 2.4 19:35:45 10° S 19:39:16 78° E 19:42:46 10° NNE
Cosmos 371 Rocket 3.4 19:35:04 10° SSW 19:39:56 86° WNW 19:44:52 10° NNE
Cosmos 1707 2.8 19:41:08 10° N 19:45:01 57° E 19:48:53 10° SSE
Cosmos 858 Rocket 4.5 19:40:18 10° NNW 19:45:36 79° ENE 19:50:49 10° SSE
FENGYUN 3A 3.8 19:40:26 10° S 19:45:47 80° WSW 19:51:11 10° NNW
Cosmos 2369 Rocket 3.1 19:41:28 10° NNW 19:46:57 52° WSW 19:52:21 10° S
Cosmos 1656 Rocket 4.1 19:43:37 10° NNW 19:49:00 43° ENE 19:54:05 11° SE
Meteor 2-13 Rocket 4.4 19:43:32 10° S 19:49:32 63° E 19:55:32 10° NNE
Cosmos 1825 Rocket 3.9 19:46:39 10° NNW 19:51:03 70° W 19:55:27 10° S
Cosmos 2298 Rocket 4.0 19:46:19 10° NNW 19:51:41 78° ENE 19:57:01 10° SSE
Cosmos 468 Rocket 4.3 19:48:24 10° SSW 19:53:35 73° WNW 19:58:51 10° NNE
Cosmos 841 Rocket 3.6 19:49:52 10° S 19:54:47 49° ESE 19:59:44 10° NNE
USA 229 DEB 3.9 19:48:07 10° NW 19:55:20 85° WSW 20:02:41 10° SSE
USA 229 3.9 19:48:13 10° NW 19:55:26 85° WSW 20:02:46 10° SSE
Cosmos 1937 Rocket 3.5 19:50:11 10° NNW 19:55:31 82° ENE 20:00:48 10° SSE
Cosmos 2181 Rocket 4.0 19:51:53 10° N 19:58:08 88° W 20:04:15 10° S
Cosmos 1340 Rocket 3.1 19:54:25 10° NNW 19:58:28 72° W 20:02:31 10° S
NOSS 3-1 (A) 4.4 19:52:28 10° NNW 19:59:43 49° NE 20:06:04 17° ESE
Cosmos 1271 Rocket 4.2 19:59:54 10° SSW 20:03:28 40° WNW 20:07:05 10° N
NOSS 3-1 (C) 4.1 20:02:40 10° NNW 20:10:14 69° NE 20:17:12 16° SE
HJ-1C 3.5 20:08:10 10° S 20:11:31 78° WSW 20:14:52 10° NNW
Cosmos 1356 Rocket 3.5 20:08:21 10° N 20:12:37 61° E 20:16:30 12° SSE
SL-08 ROCKET BODY 4.4 20:08:38 10° S 20:14:29 84° W 20:20:28 10° N
Cosmos 1805 4.3 20:15:50 25° ENE 20:15:50 25° ENE 20:18:27 10° NNE
Cosmos 1378 3.6 20:12:10 10° NNW 20:15:55 62° W 20:19:38 10° S
Cosmos 1763 Rocket 3.6 20:11:44 10° SSW 20:16:49 79° WNW 20:22:00 10° NNE
Cosmos 2074 Rocket 3.9 20:11:05 10° S 20:17:16 72° E 20:23:27 10° NNE
CZ-2D R/B 3.1 20:16:53 15° SSE 20:19:55 73° ENE 20:23:44 10° N
Cosmos 540 Rocket 3.7 20:18:31 10° S 20:23:19 43° ESE 20:28:09 10° NNE
Cosmos 1544 3.1 20:23:42 22° SSE 20:25:49 53° E 20:29:21 10° NNE
Resurs 1-3 3.5 20:24:24 22° SSE 20:27:07 66° ENE 20:31:29 10° N
SJ-6B 3.9 20:24:05 10° S 20:27:59 46° W 20:31:49 10° NNW
Meteor 1-24 Rocket 3.7 20:23:18 10° N 20:29:21 81° E 20:35:10 10° SSE
Cosmos 304 Rocket 3.8 20:26:02 10° SSW 20:30:50 84° WNW 20:35:39 10° NNE
Spot 2 Rocket 3.4 20:35:49 22° SSE 20:39:07 80° ENE 20:44:10 10° NNW
Cosmos 836 Rocket 4.4 20:36:39 10° S 20:41:54 70° ESE 20:47:09 10° NNE
GEOS 3 Rocket 3.7 20:36:49 10° NE 20:42:08 56° ESE 20:47:23 10° SSW
Resurs 01 Rocket 1.7 20:40:30 21° S 20:43:26 77° WSW 20:47:52 10° NNW
Nadezhda 3 Rocket 4.0 20:38:23 10° N 20:44:38 58° E 20:47:19 33° SE
Milstar 3 Cent rocket 3.9 20:43:55 10° SSW 20:45:32 14° S 20:45:32 14° S
USA 186 3.7 20:51:12 20° NNW 20:51:12 20° NNW 20:52:07 10° NNW
Cosmos 2184 Rocket 4.4 20:45:22 10° SSW 20:51:35 65° W 20:57:56 10° N
Cosmos 1943 Rocket 4.3 20:47:18 10° NW 20:51:45 25° WSW 20:56:12 10° SSW
GP-B 3.0 20:48:01 10° N 20:52:29 88° E 20:54:02 41° S
FALCON 9 R/B 2.7 20:49:14 10° WSW 20:52:44 44° S 20:53:49 39° SE
SJ-11-01 4.2 20:53:42 61° E 20:54:04 64° ENE 20:58:45 10° N
MOS 1-B Rocket 4.0 20:52:11 16° S 20:57:25 80° WSW 21:03:11 10° NNW
Cosmos 1980 Rocket 4.4 20:58:35 10° NNE 20:59:20 10° NE 20:59:20 10° NE
Cosmos 1697 Rocket 4.5 20:56:27 10° N 20:59:34 17° NE 20:59:34 17° NE
Cosmos 1125 Rocket 3.4 20:56:47 10° NNW 21:02:07 86° ENE 21:03:08 59° SSE
Cosmos 1812 Rocket 3.8 21:04:32 31° SSW 21:06:37 70° W 21:11:06 10° N
H-2A R/B 4.0 21:11:12 15° NNE 21:11:12 15° NNE 21:12:34 10° NNE
ERS-1 Rocket 4.1 21:11:31 30° NNE 21:11:31 30° NNE 21:14:37 10° N
Envisat 3.5 21:08:43 28° SSW 21:11:16 56° W 21:16:17 10° NNW
Cosmos 1295 Rocket 4.3 21:15:32 66° E 21:15:40 66° E 21:21:42 10° NNE
Cosmos 1939 Rocket 3.7 21:18:19 46° NW 21:18:19 46° NW 21:21:20 10° NNW
Meteor 1-21 Rocket 4.1 21:13:34 10° N 21:19:21 78° E 21:19:25 78° E
COSMOS 2406 3.8 21:14:00 10° SW 21:19:35 56° WNW 21:25:15 10° NNE
Cosmos 372 Rocket 4.0 21:15:32 10° NNW 21:20:47 74° WSW 21:21:07 71° SW
NOAA 11 4.4 21:28:20 58° NNE 21:28:20 58° NNE 21:32:50 10° N
ARGOS 4.2 21:38:33 35° NNE 21:38:33 35° NNE 21:41:52 10° N
Cosmos 2369 4.5 21:33:15 10° NNW 21:37:20 42° NNE 21:37:20 42° NNE
ATLAS 2AS CENTAUR R/B 3.4 21:34:21 10° NNW 21:42:02 46° NE 21:42:18 45° NE
Cosmos 1980 Rocket 4.3 22:39:14 10° NNW 22:41:06 21° N 22:41:06 21° N
ATLAS 2AS CENTAUR R/B 4.4 23:25:39 10° NW 23:29:44 30° WNW 23:29:44 30° WNW
